Gulkana, AK

7:27 AM AKDT on July 26, 2017 (GMT -0800)
Gulkana

Weather History for PAGK - October, 2012

Change the Weather History Date:

Monday, October 15, 2012

  Actual Average Record
Temperature  
Mean Temperature 25 °F -  
Max Temperature 36 °F 37 °F 52 °F (1972)
Min Temperature 14 °F 22 °F -16 °F (1959)
Degree Days  
Heating Degree Days 40    
Moisture  
Dew Point 22 °F    
Average Humidity 88    
Maximum Humidity 96    
Minimum Humidity 67    
Precipitation  
Precipitation 0.08 in - - ()
Snow  
Snow 0.00 in - - ()
Snow Depth 3.00 in    
Sea Level Pressure  
Sea Level Pressure 29.05 in    
Wind  
Wind Speed 3 mph (NW)    
Max Wind Speed 12 mph    
Max Gust Speed -    
Visibility 6 miles    
Events Fog , Snow    
Averages and records for this station are not official NWS values.
T = Trace of Precipitation, MM = Missing Value Source: NWS Daily Summary

Daily Weather History Graph

Daily Weather History Graph

Search for Another Location

Airport or City:

Trip Planner

Search our weather history database for the weather conditions in past years. The results will help you decide how hot, cold, wet, or windy it might be!

Date:

Astronomy

Oct. 15, 2012 Rise Set
Actual Time 8:28 AM AKDT 6:25 PM AKDT
Civil Twilight 7:42 AM AKDT 7:10 PM AKDT
Nautical Twilight 6:51 AM AKDT 8:01 PM AKDT
Astronomical Twilight 5:59 AM AKDT 8:53 PM AKDT
Moon 9:13 AM AKDT (10/15) 6:01 PM AKDT (10/15)
Length of Visible Light 11h 27m
Length of Day
9h 56m
New Moon, 0% of the Moon is Illuminated
Oct 15
New Moon
Oct 21
First Quarter
Oct 29
Full
Nov 6
Last Quarter
Nov 13
New

Hourly Weather History & Observations

Time (AKDT) Temp. Windchill Dew Point Humidity Pressure Visibility Wind Dir Wind Speed Gust Speed Precip Events Conditions
12:49 AM 23.0 °F 18.4 °F 19.4 °F 86% 29.02 in 2.0 mi NW 3.5 mph - 0.01 in Snow Light Snow
12:53 AM 23.0 °F - 19.0 °F 85% 29.11 in 2.0 mi Calm Calm - 0.01 in Snow Light Snow
1:10 AM 23.0 °F - 19.4 °F 86% 29.01 in 4.0 mi Calm Calm - 0.00 in Snow Light Snow
1:36 AM 23.0 °F - 19.4 °F 86% 29.01 in 2.0 mi Calm Calm - 0.01 in Snow Light Snow
1:53 AM 23.0 °F - 19.9 °F 88% 29.09 in 2.0 mi Calm Calm - 0.01 in Snow Light Snow
2:07 AM 23.0 °F - 19.4 °F 86% 29.01 in 3.0 mi Calm Calm - 0.00 in Snow Light Snow
2:28 AM 23.0 °F - 19.4 °F 86% 29.00 in 2.5 mi Calm Calm - 0.01 in Snow Light Snow
2:36 AM 23.0 °F - 21.2 °F 93% 29.00 in 3.0 mi Calm Calm - 0.01 in Snow Light Snow
2:53 AM 23.0 °F 18.4 °F 21.0 °F 92% 29.08 in 2.5 mi North 3.5 mph - 0.01 in Snow Light Snow
3:06 AM 23.0 °F - 21.2 °F 93% 29.00 in 3.0 mi Calm Calm - 0.00 in Snow Light Snow
3:19 AM 23.0 °F - 21.2 °F 93% 28.99 in 4.0 mi Calm Calm - 0.00 in Snow Light Snow
3:53 AM 23.0 °F 18.4 °F 21.0 °F 92% 29.08 in 4.0 mi NW 3.5 mph - 0.01 in Snow Light Snow
4:18 AM 23.0 °F 18.4 °F 21.2 °F 93% 28.99 in 2.0 mi NNW 3.5 mph - 0.00 in Snow Light Snow
4:53 AM 23.0 °F 18.4 °F 21.0 °F 92% 29.08 in 2.0 mi NNW 3.5 mph - 0.01 in Snow Light Snow
5:09 AM 23.0 °F 18.4 °F 21.2 °F 93% 28.99 in 1.8 mi NNW 3.5 mph - 0.00 in Snow Light Snow
5:18 AM 23.0 °F 18.4 °F 21.2 °F 93% 28.98 in 2.5 mi NNW 3.5 mph - 0.01 in Snow Light Snow
5:23 AM 23.0 °F - 21.2 °F 93% 28.98 in 3.0 mi Calm Calm - 0.01 in Snow Light Snow
5:53 AM 24.1 °F - 21.0 °F 88% 29.07 in 3.0 mi Calm Calm - 0.01 in Snow Light Snow
6:04 AM 24.8 °F - 21.2 °F 86% 28.98 in 3.0 mi Calm Calm - 0.00 in Snow Light Snow
6:38 AM 24.8 °F - 21.2 °F 86% 28.98 in 2.0 mi Calm Calm - 0.01 in Snow Light Snow
6:46 AM 24.8 °F - 21.2 °F 86% 28.98 in 1.8 mi Calm Calm - 0.01 in Snow Light Snow
6:53 AM 24.1 °F - 21.9 °F 91% 29.08 in 2.0 mi Calm Calm - 0.01 in Snow Light Snow
7:08 AM 24.8 °F - 21.2 °F 86% 28.99 in 3.0 mi Calm Calm - 0.01 in Snow Light Snow
7:53 AM 24.1 °F - 21.9 °F 91% 29.10 in 3.0 mi Calm Calm - 0.01 in Snow Light Snow
8:05 AM 23.0 °F 17.0 °F 21.2 °F 93% 29.01 in 1.5 mi SSE 4.6 mph - 0.01 in Snow Light Snow
8:18 AM 23.0 °F 15.8 °F 21.2 °F 93% 29.01 in 0.5 mi SSE 5.8 mph - 0.02 in Fog , Snow Snow
8:50 AM 23.0 °F 14.7 °F 21.2 °F 93% 29.03 in 2.0 mi SSE 6.9 mph - 0.04 in Snow Light Snow
8:53 AM 23.0 °F 15.8 °F 21.9 °F 96% 29.13 in 5.0 mi SSE 5.8 mph - 0.04 in Snow Light Snow
9:23 AM 23.0 °F 17.0 °F 21.2 °F 93% 29.03 in 7.0 mi South 4.6 mph - 0.00 in   Mostly Cloudy
9:53 AM 24.1 °F 16.0 °F 21.9 °F 91% 29.12 in 10.0 mi South 6.9 mph - 0.00 in   Overcast
10:53 AM 27.0 °F 16.7 °F 24.1 °F 89% 29.11 in 10.0 mi South 11.5 mph - N/A   Mostly Cloudy
11:53 AM 30.0 °F 20.5 °F 27.0 °F 88% 29.11 in 10.0 mi South 11.5 mph - N/A   Mostly Cloudy
12:53 PM 30.0 °F 22.4 °F 26.1 °F 85% 29.11 in 10.0 mi NNE 8.1 mph - N/A   Mostly Cloudy
1:53 PM 32.0 °F 24.2 °F 26.1 °F 79% 29.10 in 10.0 mi NNE 9.2 mph - N/A   Mostly Cloudy
2:53 PM 32.0 °F 23.6 °F 26.1 °F 79% 29.10 in 10.0 mi North 10.4 mph - N/A   Mostly Cloudy
3:53 PM 36.0 °F 30.3 °F 28.9 °F 76% 29.08 in 10.0 mi NW 6.9 mph - N/A   Mostly Cloudy
4:53 PM 36.0 °F 29.6 °F 28.9 °F 76% 29.06 in 10.0 mi North 8.1 mph - N/A   Mostly Cloudy
5:53 PM 32.0 °F 25.6 °F 27.0 °F 82% 29.06 in 10.0 mi NNW 6.9 mph - N/A   Mostly Cloudy
6:53 PM 28.9 °F 23.9 °F 26.1 °F 89% 29.05 in 10.0 mi NW 4.6 mph - N/A   Scattered Clouds
7:53 PM 27.0 °F 19.5 °F 24.1 °F 89% 29.05 in 10.0 mi NW 6.9 mph - N/A   Scattered Clouds
8:53 PM 25.0 °F 18.1 °F 23.0 °F 92% 29.06 in 10.0 mi NW 5.8 mph - N/A   Scattered Clouds
9:29 PM 24.8 °F 17.9 °F 21.2 °F 86% 28.96 in 10.0 mi NW 5.8 mph - N/A   Scattered Clouds
9:53 PM 24.1 °F 17.0 °F 21.0 °F 88% 29.05 in 10.0 mi WNW 5.8 mph - N/A   Clear
10:53 PM 23.0 °F 15.8 °F 19.9 °F 88% 29.05 in 10.0 mi WNW 5.8 mph - N/A   Clear
11:53 PM 21.9 °F 17.2 °F 19.0 °F 89% 29.04 in 10.0 mi Variable 3.5 mph - N/A   Clear